Time,TemperatureF,DewpointF,PressureIn,WindDirection,WindDirectionDegrees,WindSpeedMPH,WindSpeedGustMPH,Humidity,HourlyPrecipIn,Conditions,Clouds,dailyrainin,SoftwareType,DateUTC
2013-10-17 00:00:00,43.0,41.4,29.58,ESE,102,10.0,14.0,94,0.00,,,0.24,Wunderground v.1.15,2013-10-17 08:00:00,
2013-10-17 00:05:00,42.9,41.3,29.58,East,100,10.0,14.0,94,0.00,,,0.00,Wunderground v.1.15,2013-10-17 08:05:00,
2013-10-17 00:10:00,42.9,41.3,29.58,East,99,10.0,10.0,94,0.00,,,0.00,Wunderground v.1.15,2013-10-17 08:10:00,
2013-10-17 00:15:00,43.1,41.5,29.58,ENE,76,11.0,11.0,94,0.00,,,0.00,Wunderground v.1.15,2013-10-17 08:15:00,
2013-10-17 00:20:00,43.1,41.2,29.58,East,92,11.0,11.0,93,0.00,,,0.00,Wunderground v.1.15,2013-10-17 08:20:00,
2013-10-17 00:25:00,43.1,41.2,29.58,East,88,10.0,13.0,93,0.00,,,0.00,Wunderground v.1.15,2013-10-17 08:25:00,
2013-10-17 00:30:00,43.0,41.4,29.58,ESE,123,9.0,9.0,94,0.00,,,0.00,Wunderground v.1.15,2013-10-17 08:30:00,
2013-10-17 00:35:00,42.9,41.3,29.58,East,96,9.0,9.0,94,0.00,,,0.00,Wunderground v.1.15,2013-10-17 08:35:00,
2013-10-17 00:40:00,42.9,41.3,29.59,East,88,9.0,9.0,94,0.00,,,0.00,Wunderground v.1.15,2013-10-17 08:40:00,
2013-10-17 00:45:00,43.0,41.4,29.58,ENE,61,10.0,11.0,94,0.00,,,0.00,Wunderground v.1.15,2013-10-17 08:45:00,
2013-10-17 00:50:00,42.9,41.3,29.58,East,97,11.0,11.0,94,0.00,,,0.00,Wunderground v.1.15,2013-10-17 08:50:00,
2013-10-17 00:55:00,42.9,41.3,29.58,ENE,63,9.0,14.0,94,0.00,,,0.00,Wunderground v.1.15,2013-10-17 08:55:00,
2013-10-17 01:00:00,42.8,41.2,29.58,East,94,9.0,12.0,94,0.00,,,0.00,Wunderground v.1.15,2013-10-17 09:00:00,
2013-10-17 01:05:00,42.7,41.4,29.58,ESE,103,9.0,12.0,95,0.00,,,0.00,Wunderground v.1.15,2013-10-17 09:05:00,
2013-10-17 01:10:00,42.7,41.4,29.58,East,90,9.0,9.0,95,0.00,,,0.00,Wunderground v.1.15,2013-10-17 09:10:00,
2013-10-17 01:15:00,42.6,41.3,29.58,SE,124,9.0,9.0,95,0.00,,,0.00,Wunderground v.1.15,2013-10-17 09:15:00,
2013-10-17 01:20:00,42.7,41.4,29.57,East,82,10.0,10.0,95,0.00,,,0.00,Wunderground v.1.15,2013-10-17 09:20:00,
2013-10-17 01:25:00,42.7,41.4,29.57,ESE,104,10.0,15.0,95,0.00,,,0.00,Wunderground v.1.15,2013-10-17 09:25:00,
2013-10-17 01:30:00,42.7,41.4,29.57,East,84,9.0,11.0,95,0.00,,,0.00,Wunderground v.1.15,2013-10-17 09:30:00,
2013-10-17 01:35:00,42.8,41.5,29.58,ESE,105,10.0,11.0,95,0.00,,,0.00,Wunderground v.1.15,2013-10-17 09:35:00,
2013-10-17 01:40:00,42.8,41.5,29.58,ESE,115,10.0,10.0,95,0.00,,,0.00,Wunderground v.1.15,2013-10-17 09:40:00,
2013-10-17 01:45:00,42.7,41.4,29.58,ESE,104,9.0,10.0,95,0.00,,,0.00,Wunderground v.1.15,2013-10-17 09:45:00,
2013-10-17 01:50:00,42.7,41.4,29.57,East,90,8.0,8.0,95,0.00,,,0.00,Wunderground v.1.15,2013-10-17 09:50:00,
2013-10-17 01:55:00,42.6,41.3,29.57,East,98,9.0,9.0,95,0.00,,,0.00,Wunderground v.1.15,2013-10-17 09:55:00,
2013-10-17 02:00:00,42.5,41.2,29.57,ESE,115,9.0,9.0,95,0.00,,,0.00,Wunderground v.1.15,2013-10-17 10:00:00,
2013-10-17 02:05:00,42.5,41.2,29.57,ESE,113,9.0,11.0,95,0.00,,,0.00,Wunderground v.1.15,2013-10-17 10:05:00,
2013-10-17 02:10:00,42.4,41.3,29.57,East,94,9.0,9.0,96,0.00,,,0.00,Wunderground v.1.15,2013-10-17 10:10:00,
2013-10-17 02:20:00,42.4,41.3,29.57,East,101,9.0,9.0,96,0.00,,,0.00,Wunderground v.1.15,2013-10-17 10:20:00,
2013-10-17 02:25:00,42.4,42.4,29.57,East,100,9.0,9.0,100,0.00,,,0.00,Wunderground v.1.15,2013-10-17 10:25:00,
2013-10-17 02:30:00,42.5,41.4,29.57,ESE,118,9.0,9.0,96,0.00,,,0.00,Wunderground v.1.15,2013-10-17 10:30:00,
2013-10-17 02:35:00,42.5,41.2,29.57,East,101,8.0,12.0,95,0.00,,,0.00,Wunderground v.1.15,2013-10-17 10:35:00,
2013-10-17 02:40:00,42.4,41.1,29.57,ESE,102,9.0,11.0,95,0.00,,,0.00,Wunderground v.1.15,2013-10-17 10:40:00,
2013-10-17 02:45:00,42.4,41.1,29.56,ESE,105,9.0,11.0,95,0.00,,,0.00,Wunderground v.1.15,2013-10-17 10:45:00,
2013-10-17 02:50:00,42.4,41.1,29.56,East,90,9.0,14.0,95,0.00,,,0.00,Wunderground v.1.15,2013-10-17 10:50:00,
2013-10-17 02:55:00,42.4,41.1,29.56,East,93,10.0,14.0,95,0.00,,,0.00,Wunderground v.1.15,2013-10-17 10:55:00,
2013-10-17 03:00:00,42.4,41.1,29.56,ESE,123,9.0,9.0,95,0.00,,,0.00,Wunderground v.1.15,2013-10-17 11:00:00,
2013-10-17 03:05:00,42.3,41.0,29.56,East,101,8.0,9.0,95,0.00,,,0.00,Wunderground v.1.15,2013-10-17 11:05:00,
2013-10-17 03:10:00,42.2,40.9,29.56,East,101,8.0,12.0,95,0.00,,,0.00,Wunderground v.1.15,2013-10-17 11:10:00,
2013-10-17 03:15:00,42.1,40.8,29.56,ESE,109,9.0,12.0,95,0.00,,,0.00,Wunderground v.1.15,2013-10-17 11:15:00,
2013-10-17 03:20:00,42.1,40.8,29.56,SE,132,9.0,9.0,95,0.00,,,0.00,Wunderground v.1.15,2013-10-17 11:20:00,
2013-10-17 03:25:00,42.0,40.7,29.56,ESE,121,9.0,9.0,95,0.00,,,0.00,Wunderground v.1.15,2013-10-17 11:25:00,
2013-10-17 03:30:00,42.0,40.9,29.56,East,92,9.0,9.0,96,0.00,,,0.00,Wunderground v.1.15,2013-10-17 11:30:00,
2013-10-17 03:35:00,42.0,40.9,29.56,East,94,8.0,9.0,96,0.00,,,0.00,Wunderground v.1.15,2013-10-17 11:35:00,
2013-10-17 03:40:00,42.0,40.9,29.56,SE,130,8.0,13.0,96,0.00,,,0.00,Wunderground v.1.15,2013-10-17 11:40:00,
2013-10-17 03:45:00,42.0,40.9,29.56,ENE,78,9.0,13.0,96,0.00,,,0.00,Wunderground v.1.15,2013-10-17 11:45:00,
2013-10-17 03:50:00,42.0,40.9,29.56,East,84,9.0,10.0,96,0.00,,,0.00,Wunderground v.1.15,2013-10-17 11:50:00,
2013-10-17 03:55:00,42.0,40.9,29.56,ESE,109,9.0,11.0,96,0.00,,,0.00,Wunderground v.1.15,2013-10-17 11:55:00,
2013-10-17 04:00:00,42.0,40.9,29.55,ESE,116,8.0,12.0,96,0.00,,,0.00,Wunderground v.1.15,2013-10-17 12:00:00,
2013-10-17 04:05:00,41.9,40.8,29.55,East,92,8.0,12.0,96,0.00,,,0.00,Wunderground v.1.15,2013-10-17 12:05:00,
2013-10-17 04:10:00,41.9,40.8,29.55,East,95,8.0,8.0,96,0.00,,,0.00,Wunderground v.1.15,2013-10-17 12:10:00,
2013-10-17 04:15:00,41.8,41.0,29.55,ENE,76,8.0,8.0,97,0.00,,,0.00,Wunderground v.1.15,2013-10-17 12:15:00,
2013-10-17 04:20:00,41.8,41.0,29.55,ESE,121,9.0,9.0,97,0.00,,,0.00,Wunderground v.1.15,2013-10-17 12:20:00,
2013-10-17 04:25:00,41.8,41.0,29.55,ESE,114,9.0,9.0,97,0.00,,,0.00,Wunderground v.1.15,2013-10-17 12:25:00,
2013-10-17 04:30:00,41.7,40.9,29.55,ESE,110,8.0,8.0,97,0.00,,,0.00,Wunderground v.1.15,2013-10-17 12:30:00,
2013-10-17 04:35:00,41.6,40.8,29.54,East,98,8.0,8.0,97,0.00,,,0.00,Wunderground v.1.15,2013-10-17 12:35:00,
2013-10-17 04:40:00,41.6,40.8,29.55,ESE,107,7.0,7.0,97,0.00,,,0.00,Wunderground v.1.15,2013-10-17 12:40:00,
2013-10-17 04:45:00,41.5,40.7,29.54,SSE,147,7.0,8.0,97,0.00,,,0.00,Wunderground v.1.15,2013-10-17 12:45:00,
2013-10-17 04:55:00,41.5,41.0,29.54,East,88,9.0,10.0,98,0.00,,,0.00,Wunderground v.1.15,2013-10-17 12:55:00,
2013-10-17 05:00:00,41.5,41.0,29.54,ESE,111,9.0,9.0,98,0.00,,,0.00,Wunderground v.1.15,2013-10-17 13:00:00,
2013-10-17 05:05:00,41.4,40.9,29.54,ESE,103,9.0,9.0,98,0.00,,,0.00,Wunderground v.1.15,2013-10-17 13:05:00,
2013-10-17 05:15:00,41.4,40.9,29.54,ESE,102,8.0,9.0,98,0.00,,,0.00,Wunderground v.1.15,2013-10-17 13:15:00,
2013-10-17 05:20:00,41.3,40.8,29.53,East,81,9.0,9.0,98,0.00,,,0.00,Wunderground v.1.15,2013-10-17 13:20:00,
2013-10-17 05:25:00,41.3,40.8,29.54,East,95,9.0,12.0,98,0.00,,,0.00,Wunderground v.1.15,2013-10-17 13:25:00,
2013-10-17 05:30:00,41.3,40.8,29.53,East,101,9.0,9.0,98,0.00,,,0.00,Wunderground v.1.15,2013-10-17 13:30:00,
2013-10-17 05:35:00,41.3,40.8,29.53,East,86,9.0,9.0,98,0.00,,,0.00,Wunderground v.1.15,2013-10-17 13:35:00,
2013-10-17 05:40:00,41.3,40.8,29.53,East,101,8.0,8.0,98,0.00,,,0.00,Wunderground v.1.15,2013-10-17 13:40:00,
2013-10-17 05:45:00,41.3,40.8,29.53,ESE,108,8.0,8.0,98,0.00,,,0.00,Wunderground v.1.15,2013-10-17 13:45:00,
2013-10-17 05:50:00,41.3,40.8,29.53,SE,131,7.0,11.0,98,0.00,,,0.00,Wunderground v.1.15,2013-10-17 13:50:00,
2013-10-17 05:55:00,41.3,40.8,29.53,ESE,103,7.0,11.0,98,0.00,,,0.01,Wunderground v.1.15,2013-10-17 13:55:00,
2013-10-17 06:00:00,41.2,40.7,29.53,ESE,106,6.0,8.0,98,0.00,,,0.01,Wunderground v.1.15,2013-10-17 14:00:00,
2013-10-17 06:05:00,41.2,40.7,29.52,East,85,6.0,8.0,98,0.00,,,0.01,Wunderground v.1.15,2013-10-17 14:05:00,
2013-10-17 06:10:00,41.3,40.8,29.52,SE,126,7.0,11.0,98,0.00,,,0.01,Wunderground v.1.15,2013-10-17 14:10:00,
2013-10-17 06:15:00,41.3,40.8,29.52,SE,125,8.0,11.0,98,0.00,,,0.01,Wunderground v.1.15,2013-10-17 14:15:00,
2013-10-17 06:25:00,41.3,40.8,29.52,ESE,104,9.0,9.0,98,0.00,,,0.02,Wunderground v.1.15,2013-10-17 14:25:00,
2013-10-17 06:30:00,41.2,40.7,29.52,ESE,119,8.0,9.0,98,0.00,,,0.02,Wunderground v.1.15,2013-10-17 14:30:00,
2013-10-17 06:35:00,41.2,40.7,29.51,ESE,108,7.0,9.0,98,0.00,,,0.02,Wunderground v.1.15,2013-10-17 14:35:00,
2013-10-17 06:40:00,41.2,40.7,29.51,ESE,112,7.0,8.0,98,0.05,,,0.03,Wunderground v.1.15,2013-10-17 14:40:00,
2013-10-17 06:45:00,41.2,40.7,29.52,SE,136,8.0,9.0,98,0.05,,,0.03,Wunderground v.1.15,2013-10-17 14:45:00,
2013-10-17 06:50:00,41.2,40.7,29.52,ESE,113,9.0,12.0,98,0.04,,,0.03,Wunderground v.1.15,2013-10-17 14:50:00,
2013-10-17 06:55:00,41.1,40.6,29.52,SE,126,10.0,12.0,98,0.00,,,0.03,Wunderground v.1.15,2013-10-17 14:55:00,
2013-10-17 07:00:00,41.0,40.5,29.52,ESE,121,9.0,9.0,98,0.00,,,0.03,Wunderground v.1.15,2013-10-17 15:00:00,
2013-10-17 07:05:00,40.9,40.4,29.51,ESE,113,7.0,9.0,98,0.00,,,0.03,Wunderground v.1.15,2013-10-17 15:05:00,
2013-10-17 07:10:00,40.7,40.2,29.51,SE,129,6.0,9.0,98,0.00,,,0.03,Wunderground v.1.15,2013-10-17 15:10:00,
2013-10-17 07:15:00,40.6,40.1,29.51,ESE,123,6.0,9.0,98,0.00,,,0.03,Wunderground v.1.15,2013-10-17 15:15:00,
2013-10-17 07:20:00,40.6,40.1,29.51,ESE,119,6.0,7.0,98,0.00,,,0.03,Wunderground v.1.15,2013-10-17 15:20:00,
2013-10-17 07:25:00,40.6,40.1,29.51,SE,126,6.0,9.0,98,0.00,,,0.03,Wunderground v.1.15,2013-10-17 15:25:00,
2013-10-17 07:30:00,40.5,40.0,29.51,SE,126,6.0,6.0,98,0.00,,,0.03,Wunderground v.1.15,2013-10-17 15:30:00,
2013-10-17 07:35:00,40.2,39.7,29.51,SE,125,5.0,6.0,98,0.00,,,0.03,Wunderground v.1.15,2013-10-17 15:35:00,
2013-10-17 07:40:00,40.1,39.6,29.51,SE,132,4.0,4.0,98,0.00,,,0.03,Wunderground v.1.15,2013-10-17 15:40:00,
2013-10-17 07:50:00,39.7,39.2,29.51,SE,130,4.0,4.0,98,0.00,,,0.03,Wunderground v.1.15,2013-10-17 15:50:00,
2013-10-17 07:55:00,39.5,39.0,29.51,East,95,5.0,8.0,98,0.00,,,0.03,Wunderground v.1.15,2013-10-17 15:55:00,
2013-10-17 08:00:00,39.3,38.8,29.51,ESE,116,5.0,5.0,98,0.00,,,0.03,Wunderground v.1.15,2013-10-17 16:00:00,
2013-10-17 08:05:00,39.1,38.6,29.51,SE,126,4.0,7.0,98,0.00,,,0.03,Wunderground v.1.15,2013-10-17 16:05:00,
2013-10-17 08:10:00,39.1,38.6,29.52,SE,126,4.0,4.0,98,0.00,,,0.03,Wunderground v.1.15,2013-10-17 16:10:00,
2013-10-17 08:15:00,39.0,38.5,29.52,ESE,112,4.0,4.0,98,0.00,,,0.03,Wunderground v.1.15,2013-10-17 16:15:00,
2013-10-17 08:20:00,38.9,38.4,29.52,ESE,118,4.0,4.0,98,0.00,,,0.03,Wunderground v.1.15,2013-10-17 16:20:00,
2013-10-17 08:25:00,38.8,38.3,29.51,SE,138,5.0,5.0,98,0.00,,,0.03,Wunderground v.1.15,2013-10-17 16:25:00,
2013-10-17 08:30:00,38.6,38.1,29.51,SE,140,4.0,6.0,98,0.00,,,0.03,Wunderground v.1.15,2013-10-17 16:30:00,
2013-10-17 08:35:00,38.4,37.9,29.51,SSE,150,5.0,6.0,98,0.00,,,0.03,Wunderground v.1.15,2013-10-17 16:35:00,
2013-10-17 08:40:00,38.2,37.7,29.52,ESE,115,5.0,6.0,98,0.00,,,0.03,Wunderground v.1.15,2013-10-17 16:40:00,
2013-10-17 08:45:00,38.0,37.5,29.52,ESE,117,4.0,6.0,98,0.00,,,0.03,Wunderground v.1.15,2013-10-17 16:45:00,
2013-10-17 08:55:00,37.7,37.2,29.51,ESE,119,5.0,5.0,98,0.00,,,0.03,Wunderground v.1.15,2013-10-17 16:55:00,
2013-10-17 09:00:00,37.5,37.0,29.51,ESE,123,5.0,5.0,98,0.00,,,0.03,Wunderground v.1.15,2013-10-17 17:00:00,
2013-10-17 09:05:00,37.4,36.9,29.51,SSE,149,5.0,11.0,98,0.00,,,0.03,Wunderground v.1.15,2013-10-17 17:05:00,
2013-10-17 09:10:00,37.3,36.8,29.51,ESE,117,6.0,8.0,98,0.00,,,0.03,Wunderground v.1.15,2013-10-17 17:10:00,
2013-10-17 09:15:00,37.1,36.6,29.51,SE,142,6.0,8.0,98,0.00,,,0.03,Wunderground v.1.15,2013-10-17 17:15:00,
2013-10-17 09:20:00,36.9,36.4,29.51,SE,144,6.0,6.0,98,0.00,,,0.03,Wunderground v.1.15,2013-10-17 17:20:00,
2013-10-17 09:35:00,36.5,36.0,29.51,SE,130,5.0,7.0,98,0.00,,,0.03,Wunderground v.1.15,2013-10-17 17:35:00,
2013-10-17 09:40:00,36.4,35.9,29.51,SSE,153,5.0,5.0,98,0.00,,,0.03,Wunderground v.1.15,2013-10-17 17:40:00,
2013-10-17 09:45:00,36.2,35.7,29.51,SE,134,5.0,7.0,98,0.00,,,0.03,Wunderground v.1.15,2013-10-17 17:45:00,
2013-10-17 09:50:00,36.1,35.6,29.51,SSE,148,4.0,4.0,98,0.00,,,0.03,Wunderground v.1.15,2013-10-17 17:50:00,
2013-10-17 09:55:00,36.1,35.6,29.51,SE,126,3.0,4.0,98,0.00,,,0.03,Wunderground v.1.15,2013-10-17 17:55:00,
2013-10-17 10:00:00,36.1,35.6,29.51,ESE,119,3.0,5.0,98,0.00,,,0.03,Wunderground v.1.15,2013-10-17 18:00:00,
2013-10-17 10:05:00,36.1,35.6,29.51,ESE,106,4.0,5.0,98,0.00,,,0.03,Wunderground v.1.15,2013-10-17 18:05:00,
2013-10-17 10:10:00,36.0,35.5,29.51,ESE,122,5.0,5.0,98,0.00,,,0.03,Wunderground v.1.15,2013-10-17 18:10:00,
2013-10-17 10:15:00,35.9,35.4,29.51,ESE,114,4.0,5.0,98,0.00,,,0.03,Wunderground v.1.15,2013-10-17 18:15:00,
2013-10-17 10:20:00,35.9,35.4,29.51,ESE,111,4.0,4.0,98,0.00,,,0.04,Wunderground v.1.15,2013-10-17 18:20:00,
2013-10-17 10:25:00,35.8,35.3,29.51,East,98,4.0,6.0,98,0.00,,,0.04,Wunderground v.1.15,2013-10-17 18:25:00,
2013-10-17 10:30:00,35.7,35.2,29.51,ESE,120,4.0,6.0,98,0.00,,,0.04,Wunderground v.1.15,2013-10-17 18:30:00,
2013-10-17 10:35:00,35.7,35.2,29.51,ESE,117,4.0,6.0,98,0.00,,,0.04,Wunderground v.1.15,2013-10-17 18:35:00,
2013-10-17 10:40:00,35.6,35.1,29.51,ESE,117,4.0,6.0,98,0.00,,,0.04,Wunderground v.1.15,2013-10-17 18:40:00,
2013-10-17 10:45:00,35.5,35.0,29.50,ESE,111,3.0,6.0,98,0.00,,,0.04,Wunderground v.1.15,2013-10-17 18:45:00,
2013-10-17 10:50:00,35.5,35.0,29.51,ESE,122,3.0,3.0,98,0.00,,,0.04,Wunderground v.1.15,2013-10-17 18:50:00,
2013-10-17 10:55:00,35.4,34.9,29.51,SE,126,4.0,5.0,98,0.00,,,0.04,Wunderground v.1.15,2013-10-17 18:55:00,
2013-10-17 11:00:00,35.5,35.0,29.51,SE,127,3.0,3.0,98,0.00,,,0.04,Wunderground v.1.15,2013-10-17 19:00:00,
2013-10-17 11:05:00,35.6,35.1,29.51,ESE,119,3.0,3.0,98,0.00,,,0.04,Wunderground v.1.15,2013-10-17 19:05:00,
2013-10-17 11:10:00,35.6,35.1,29.51,East,97,3.0,5.0,98,0.00,,,0.04,Wunderground v.1.15,2013-10-17 19:10:00,
2013-10-17 11:15:00,35.6,35.1,29.51,ESE,116,4.0,5.0,98,0.00,,,0.04,Wunderground v.1.15,2013-10-17 19:15:00,
2013-10-17 11:20:00,35.6,35.1,29.51,ESE,103,4.0,4.0,98,0.00,,,0.04,Wunderground v.1.15,2013-10-17 19:20:00,
2013-10-17 11:25:00,35.7,35.2,29.51,ESE,120,3.0,5.0,98,0.00,,,0.04,Wunderground v.1.15,2013-10-17 19:25:00,
2013-10-17 11:30:00,35.7,35.2,29.51,ESE,115,4.0,4.0,98,0.00,,,0.04,Wunderground v.1.15,2013-10-17 19:30:00,
2013-10-17 11:35:00,35.7,35.2,29.51,ESE,116,4.0,6.0,98,0.00,,,0.04,Wunderground v.1.15,2013-10-17 19:35:00,
2013-10-17 11:40:00,35.8,35.3,29.51,ESE,111,4.0,6.0,98,0.00,,,0.04,Wunderground v.1.15,2013-10-17 19:40:00,
2013-10-17 11:45:00,35.8,35.3,29.51,SSE,149,5.0,7.0,98,0.00,,,0.04,Wunderground v.1.15,2013-10-17 19:45:00,
2013-10-17 11:50:00,35.7,35.2,29.51,ESE,123,6.0,9.0,98,0.00,,,0.04,Wunderground v.1.15,2013-10-17 19:50:00,
2013-10-17 11:55:00,35.7,35.2,29.51,East,98,5.0,9.0,98,0.00,,,0.04,Wunderground v.1.15,2013-10-17 19:55:00,
2013-10-17 12:00:00,35.6,35.1,29.51,ESE,123,5.0,5.0,98,0.00,,,0.04,Wunderground v.1.15,2013-10-17 20:00:00,
2013-10-17 12:10:00,35.7,35.2,29.51,ESE,115,5.0,7.0,98,0.00,,,0.04,Wunderground v.1.15,2013-10-17 20:10:00,
2013-10-17 12:15:00,35.8,35.3,29.51,SE,124,5.0,7.0,98,0.00,,,0.04,Wunderground v.1.15,2013-10-17 20:15:00,
2013-10-17 12:20:00,35.8,35.3,29.51,ESE,121,5.0,5.0,98,0.00,,,0.04,Wunderground v.1.15,2013-10-17 20:20:00,
2013-10-17 12:25:00,35.7,35.2,29.51,ESE,119,5.0,5.0,98,0.00,,,0.04,Wunderground v.1.15,2013-10-17 20:25:00,
2013-10-17 12:30:00,35.5,34.7,29.51,ESE,123,4.0,4.0,97,0.00,,,0.04,Wunderground v.1.15,2013-10-17 20:30:00,
2013-10-17 12:35:00,35.5,34.7,29.51,ESE,117,5.0,6.0,97,0.00,,,0.04,Wunderground v.1.15,2013-10-17 20:35:00,
2013-10-17 12:40:00,35.5,34.7,29.51,ESE,102,5.0,5.0,97,0.00,,,0.04,Wunderground v.1.15,2013-10-17 20:40:00,
2013-10-17 12:45:00,35.5,34.7,29.51,ESE,115,5.0,7.0,97,0.00,,,0.04,Wunderground v.1.15,2013-10-17 20:45:00,
2013-10-17 12:50:00,35.7,34.9,29.51,SE,146,4.0,7.0,97,0.00,,,0.04,Wunderground v.1.15,2013-10-17 20:50:00,
2013-10-17 12:55:00,35.9,35.1,29.51,SE,145,4.0,9.0,97,0.00,,,0.04,Wunderground v.1.15,2013-10-17 20:55:00,
2013-10-17 13:00:00,36.1,35.3,29.51,SSE,161,5.0,7.0,97,0.00,,,0.04,Wunderground v.1.15,2013-10-17 21:00:00,
2013-10-17 13:05:00,36.2,35.2,29.51,ESE,122,5.0,7.0,96,0.00,,,0.04,Wunderground v.1.15,2013-10-17 21:05:00,
2013-10-17 13:10:00,36.1,35.1,29.51,SE,145,6.0,6.0,96,0.00,,,0.04,Wunderground v.1.15,2013-10-17 21:10:00,
2013-10-17 13:15:00,35.9,34.9,29.51,SE,128,6.0,9.0,96,0.00,,,0.04,Wunderground v.1.15,2013-10-17 21:15:00,
2013-10-17 13:20:00,36.0,35.0,29.51,ESE,109,6.0,6.0,96,0.00,,,0.04,Wunderground v.1.15,2013-10-17 21:20:00,
2013-10-17 13:25:00,36.8,36.0,29.51,SE,131,5.0,8.0,97,0.00,,,0.04,Wunderground v.1.15,2013-10-17 21:25:00,
2013-10-17 13:30:00,37.0,36.0,29.51,SE,146,6.0,9.0,96,0.00,,,0.04,Wunderground v.1.15,2013-10-17 21:30:00,
2013-10-17 13:35:00,36.9,35.6,29.51,SSE,168,8.0,10.0,95,0.00,,,0.04,Wunderground v.1.15,2013-10-17 21:35:00,
2013-10-17 13:40:00,36.6,35.0,29.51,SE,126,8.0,8.0,94,0.00,,,0.04,Wunderground v.1.15,2013-10-17 21:40:00,
2013-10-17 13:50:00,36.4,34.8,29.51,SE,126,7.0,7.0,94,0.00,,,0.04,Wunderground v.1.15,2013-10-17 21:50:00,
2013-10-17 13:55:00,36.2,34.6,29.51,SE,136,6.0,7.0,94,0.00,,,0.04,Wunderground v.1.15,2013-10-17 21:55:00,
2013-10-17 14:00:00,36.0,34.4,29.51,SSE,150,6.0,6.0,94,0.00,,,0.04,Wunderground v.1.15,2013-10-17 22:00:00,
2013-10-17 14:05:00,36.0,34.4,29.51,SE,144,6.0,6.0,94,0.00,,,0.04,Wunderground v.1.15,2013-10-17 22:05:00,
2013-10-17 14:10:00,35.8,34.5,29.51,SSE,153,7.0,7.0,95,0.00,,,0.04,Wunderground v.1.15,2013-10-17 22:10:00,
2013-10-17 14:15:00,35.9,34.6,29.50,SE,130,6.0,7.0,95,0.00,,,0.04,Wunderground v.1.15,2013-10-17 22:15:00,
2013-10-17 14:20:00,36.1,35.1,29.50,ESE,119,5.0,6.0,96,0.00,,,0.04,Wunderground v.1.15,2013-10-17 22:20:00,
2013-10-17 14:25:00,36.1,34.8,29.50,SE,143,5.0,6.0,95,0.00,,,0.04,Wunderground v.1.15,2013-10-17 22:25:00,
2013-10-17 14:30:00,36.2,34.4,29.50,ESE,122,7.0,7.0,93,0.00,,,0.04,Wunderground v.1.15,2013-10-17 22:30:00,
2013-10-17 14:35:00,36.6,34.5,29.50,SE,138,8.0,9.0,92,0.00,,,0.04,Wunderground v.1.15,2013-10-17 22:35:00,
2013-10-17 14:40:00,36.4,34.3,29.50,SE,141,7.0,10.0,92,0.00,,,0.04,Wunderground v.1.15,2013-10-17 22:40:00,
2013-10-17 14:45:00,36.1,34.3,29.50,SE,137,7.0,10.0,93,0.00,,,0.04,Wunderground v.1.15,2013-10-17 22:45:00,
2013-10-17 14:50:00,36.1,34.3,29.50,ESE,120,6.0,6.0,93,0.00,,,0.04,Wunderground v.1.15,2013-10-17 22:50:00,
2013-10-17 14:55:00,36.1,34.3,29.50,SE,128,5.0,8.0,93,0.00,,,0.04,Wunderground v.1.15,2013-10-17 22:55:00,
2013-10-17 15:00:00,36.3,34.2,29.50,SE,124,7.0,7.0,92,0.00,,,0.04,Wunderground v.1.15,2013-10-17 23:00:00,
2013-10-17 15:05:00,36.4,33.7,29.50,ESE,119,8.0,8.0,90,0.00,,,0.04,Wunderground v.1.15,2013-10-17 23:05:00,
2013-10-17 15:10:00,36.6,34.2,29.50,SE,134,7.0,7.0,91,0.00,,,0.04,Wunderground v.1.15,2013-10-17 23:10:00,
2013-10-17 15:15:00,36.8,34.4,29.50,SE,138,6.0,7.0,91,0.00,,,0.04,Wunderground v.1.15,2013-10-17 23:15:00,
2013-10-17 15:20:00,36.5,33.6,29.49,SSE,158,6.0,10.0,89,0.00,,,0.04,Wunderground v.1.15,2013-10-17 23:20:00,
2013-10-17 15:25:00,37.1,34.7,29.49,South,169,6.0,10.0,91,0.00,,,0.04,Wunderground v.1.15,2013-10-17 23:25:00,
2013-10-17 15:30:00,37.8,34.8,29.50,SSE,156,6.0,6.0,89,0.00,,,0.04,Wunderground v.1.15,2013-10-17 23:30:00,
2013-10-17 15:35:00,37.6,34.4,29.49,ESE,118,7.0,7.0,88,0.00,,,0.04,Wunderground v.1.15,2013-10-17 23:35:00,
2013-10-17 15:40:00,37.8,34.0,29.49,SE,143,7.0,7.0,86,0.00,,,0.04,Wunderground v.1.15,2013-10-17 23:40:00,
2013-10-17 15:50:00,37.2,33.4,29.49,SSE,150,6.0,6.0,86,0.00,,,0.04,Wunderground v.1.15,2013-10-17 23:50:00,
2013-10-17 15:55:00,36.9,33.1,29.48,SE,134,6.0,6.0,86,0.00,,,0.04,Wunderground v.1.15,2013-10-17 23:55:00,
2013-10-17 16:00:00,36.8,33.3,29.49,SE,143,6.0,6.0,87,0.00,,,0.04,Wunderground v.1.15,2013-10-18 00:00:00,
2013-10-17 16:05:00,36.4,33.5,29.49,ESE,109,6.0,9.0,89,0.00,,,0.04,Wunderground v.1.15,2013-10-18 00:05:00,
2013-10-17 16:10:00,35.7,33.3,29.49,SE,126,7.0,11.0,91,0.00,,,0.04,Wunderground v.1.15,2013-10-18 00:10:00,
2013-10-17 16:15:00,35.2,33.4,29.49,ESE,119,7.0,11.0,93,0.00,,,0.04,Wunderground v.1.15,2013-10-18 00:15:00,
2013-10-17 16:20:00,35.7,34.1,29.49,SE,133,8.0,9.0,94,0.00,,,0.04,Wunderground v.1.15,2013-10-18 00:20:00,
2013-10-17 16:25:00,35.5,33.7,29.49,ESE,115,7.0,9.0,93,0.00,,,0.04,Wunderground v.1.15,2013-10-18 00:25:00,
2013-10-17 16:30:00,35.3,33.5,29.49,SE,145,5.0,6.0,93,0.00,,,0.04,Wunderground v.1.15,2013-10-18 00:30:00,
2013-10-17 16:35:00,35.4,33.8,29.49,SE,128,5.0,6.0,94,0.00,,,0.04,Wunderground v.1.15,2013-10-18 00:35:00,
2013-10-17 16:40:00,35.7,34.1,29.49,SE,128,5.0,6.0,94,0.00,,,0.04,Wunderground v.1.15,2013-10-18 00:40:00,
2013-10-17 16:45:00,35.9,34.3,29.49,ESE,102,5.0,6.0,94,0.00,,,0.04,Wunderground v.1.15,2013-10-18 00:45:00,
2013-10-17 16:50:00,35.9,34.1,29.49,ESE,111,5.0,5.0,93,0.00,,,0.04,Wunderground v.1.15,2013-10-18 00:50:00,
2013-10-17 16:55:00,35.9,33.8,29.48,SSE,153,6.0,7.0,92,0.00,,,0.04,Wunderground v.1.15,2013-10-18 00:55:00,
2013-10-17 17:00:00,36.0,33.9,29.49,SE,126,7.0,7.0,92,0.00,,,0.04,Wunderground v.1.15,2013-10-18 01:00:00,
2013-10-17 17:05:00,35.6,33.5,29.49,SE,137,7.0,7.0,92,0.00,,,0.04,Wunderground v.1.15,2013-10-18 01:05:00,
2013-10-17 17:10:00,35.3,33.5,29.49,SSE,164,6.0,6.0,93,0.00,,,0.04,Wunderground v.1.15,2013-10-18 01:10:00,
2013-10-17 17:15:00,35.5,33.9,29.49,SE,132,5.0,6.0,94,0.00,,,0.04,Wunderground v.1.15,2013-10-18 01:15:00,
2013-10-17 17:21:00,35.8,34.0,29.49,SE,136,6.0,6.0,93,0.00,,,0.04,Wunderground v.1.15,2013-10-18 01:21:00,
2013-10-17 17:25:00,35.9,33.5,29.49,SSE,150,6.0,6.0,91,0.00,,,0.04,Wunderground v.1.15,2013-10-18 01:25:00,
2013-10-17 17:30:00,35.5,32.6,29.49,ESE,115,6.0,6.0,89,0.00,,,0.04,Wunderground v.1.15,2013-10-18 01:30:00,
2013-10-17 17:35:00,35.1,32.2,29.49,SE,126,6.0,7.0,89,0.00,,,0.04,Wunderground v.1.15,2013-10-18 01:35:00,
2013-10-17 17:40:00,35.0,32.6,29.49,SE,140,5.0,5.0,91,0.00,,,0.04,Wunderground v.1.15,2013-10-18 01:40:00,
2013-10-17 17:45:00,34.8,32.7,29.49,ESE,123,5.0,5.0,92,0.00,,,0.04,Wunderground v.1.15,2013-10-18 01:45:00,
2013-10-17 17:50:00,34.6,32.8,29.49,ESE,116,5.0,5.0,93,0.00,,,0.04,Wunderground v.1.15,2013-10-18 01:50:00,
2013-10-17 17:55:00,34.5,32.7,29.49,ESE,104,5.0,9.0,93,0.00,,,0.04,Wunderground v.1.15,2013-10-18 01:55:00,
2013-10-17 18:00:00,34.5,33.0,29.49,ESE,123,6.0,6.0,94,0.00,,,0.04,Wunderground v.1.15,2013-10-18 02:00:00,
2013-10-17 18:05:00,34.4,32.9,29.49,ESE,119,5.0,6.0,94,0.00,,,0.04,Wunderground v.1.15,2013-10-18 02:05:00,
2013-10-17 18:10:00,34.2,32.7,29.49,SE,129,4.0,4.0,94,0.00,,,0.04,Wunderground v.1.15,2013-10-18 02:10:00,
2013-10-17 18:15:00,33.9,32.4,29.49,SE,132,5.0,7.0,94,0.00,,,0.04,Wunderground v.1.15,2013-10-18 02:15:00,
2013-10-17 18:20:00,33.7,32.2,29.49,SE,126,6.0,6.0,94,0.00,,,0.04,Wunderground v.1.15,2013-10-18 02:20:00,
2013-10-17 18:25:00,33.6,32.1,29.49,SE,134,6.0,6.0,94,0.00,,,0.04,Wunderground v.1.15,2013-10-18 02:25:00,
2013-10-17 18:30:00,33.6,32.1,29.49,SE,126,5.0,5.0,94,0.00,,,0.05,Wunderground v.1.15,2013-10-18 02:30:00,
2013-10-17 18:35:00,33.7,32.4,29.49,SE,145,5.0,5.0,95,0.00,,,0.05,Wunderground v.1.15,2013-10-18 02:35:00,
2013-10-17 18:40:00,33.7,32.4,29.49,ESE,108,5.0,5.0,95,0.00,,,0.05,Wunderground v.1.15,2013-10-18 02:40:00,
2013-10-17 18:45:00,33.4,32.1,29.49,ESE,111,5.0,5.0,95,0.00,,,0.05,Wunderground v.1.15,2013-10-18 02:45:00,
2013-10-17 18:55:00,33.2,31.9,29.48,ESE,103,4.0,4.0,95,0.00,,,0.05,Wunderground v.1.15,2013-10-18 02:55:00,
2013-10-17 19:00:00,33.2,31.9,29.48,ESE,113,4.0,5.0,95,0.00,,,0.05,Wunderground v.1.15,2013-10-18 03:00:00,
2013-10-17 19:05:00,33.1,31.6,29.48,ESE,121,4.0,5.0,94,0.00,,,0.05,Wunderground v.1.15,2013-10-18 03:05:00,
2013-10-17 19:10:00,33.0,31.5,29.48,ESE,114,3.0,5.0,94,0.00,,,0.05,Wunderground v.1.15,2013-10-18 03:10:00,
2013-10-17 19:15:00,33.0,31.5,29.49,SE,146,3.0,5.0,94,0.00,,,0.05,Wunderground v.1.15,2013-10-18 03:15:00,
2013-10-17 19:20:00,33.0,31.5,29.48,SE,131,4.0,4.0,94,0.00,,,0.05,Wunderground v.1.15,2013-10-18 03:20:00,
2013-10-17 19:25:00,32.9,31.4,29.49,ESE,123,3.0,4.0,94,0.00,,,0.05,Wunderground v.1.15,2013-10-18 03:25:00,
2013-10-17 19:30:00,32.9,31.4,29.48,ESE,123,2.0,2.0,94,0.00,,,0.05,Wunderground v.1.15,2013-10-18 03:30:00,
2013-10-17 19:35:00,32.8,31.3,29.49,ESE,123,1.0,2.0,94,0.00,,,0.05,Wunderground v.1.15,2013-10-18 03:35:00,
2013-10-17 19:40:00,32.8,31.5,29.49,ESE,123,1.0,2.0,95,0.00,,,0.05,Wunderground v.1.15,2013-10-18 03:40:00,
2013-10-17 19:45:00,32.9,31.6,29.49,ESE,103,1.0,2.0,95,0.00,,,0.05,Wunderground v.1.15,2013-10-18 03:45:00,
2013-10-17 19:50:00,32.8,31.5,29.49,East,98,1.0,5.0,95,0.00,,,0.05,Wunderground v.1.15,2013-10-18 03:50:00,
2013-10-17 19:55:00,32.8,31.5,29.49,ESE,106,2.0,5.0,95,0.00,,,0.05,Wunderground v.1.15,2013-10-18 03:55:00,
2013-10-17 20:00:00,32.8,31.5,29.49,ESE,105,2.0,2.0,95,0.00,,,0.05,Wunderground v.1.15,2013-10-18 04:00:00,
2013-10-17 20:05:00,32.8,31.5,29.49,ESE,102,2.0,5.0,95,0.00,,,0.05,Wunderground v.1.15,2013-10-18 04:05:00,
2013-10-17 20:10:00,32.8,31.5,29.49,ESE,113,2.0,4.0,95,0.00,,,0.05,Wunderground v.1.15,2013-10-18 04:10:00,
2013-10-17 20:15:00,32.8,31.5,29.49,ESE,113,1.0,4.0,95,0.00,,,0.05,Wunderground v.1.15,2013-10-18 04:15:00,
2013-10-17 20:20:00,32.8,31.5,29.49,ESE,113,1.0,1.0,95,0.00,,,0.05,Wunderground v.1.15,2013-10-18 04:20:00,
2013-10-17 20:25:00,32.8,31.5,29.49,ESE,113,0.0,1.0,95,0.00,,,0.05,Wunderground v.1.15,2013-10-18 04:25:00,
2013-10-17 20:30:00,32.8,31.5,29.49,ESE,113,0.0,0.0,95,0.00,,,0.05,Wunderground v.1.15,2013-10-18 04:30:00,
2013-10-17 20:35:00,32.8,31.5,29.49,ESE,113,0.0,1.0,95,0.00,,,0.05,Wunderground v.1.15,2013-10-18 04:35:00,
2013-10-17 20:40:00,32.8,31.5,29.50,SE,138,1.0,2.0,95,0.00,,,0.05,Wunderground v.1.15,2013-10-18 04:40:00,
2013-10-17 20:45:00,32.6,31.3,29.49,SE,137,3.0,4.0,95,0.00,,,0.05,Wunderground v.1.15,2013-10-18 04:45:00,
2013-10-17 20:50:00,32.6,31.3,29.49,ESE,120,3.0,3.0,95,0.00,,,0.05,Wunderground v.1.15,2013-10-18 04:50:00,
2013-10-17 20:55:00,32.5,31.2,29.49,ESE,120,1.0,3.0,95,0.00,,,0.05,Wunderground v.1.15,2013-10-18 04:55:00,
2013-10-17 21:00:00,32.3,31.0,29.49,ESE,120,1.0,1.0,95,0.00,,,0.05,Wunderground v.1.15,2013-10-18 05:00:00,
2013-10-17 21:10:00,32.0,30.7,29.49,ESE,120,1.0,1.0,95,0.00,,,0.05,Wunderground v.1.15,2013-10-18 05:10:00,
2013-10-17 21:15:00,32.2,31.2,29.49,ESE,120,3.0,3.0,96,0.00,,,0.05,Wunderground v.1.15,2013-10-18 05:15:00,
2013-10-17 21:20:00,32.5,31.2,29.49,ESE,113,4.0,6.0,95,0.00,,,0.05,Wunderground v.1.15,2013-10-18 05:20:00,
2013-10-17 21:25:00,32.6,31.3,29.49,ESE,114,4.0,6.0,95,0.00,,,0.05,Wunderground v.1.15,2013-10-18 05:25:00,
2013-10-17 21:30:00,32.6,31.3,29.49,ESE,114,4.0,4.0,95,0.00,,,0.05,Wunderground v.1.15,2013-10-18 05:30:00,
2013-10-17 21:35:00,32.6,31.1,29.49,ESE,114,3.0,7.0,94,0.00,,,0.05,Wunderground v.1.15,2013-10-18 05:35:00,
2013-10-17 21:40:00,32.6,30.8,29.49,ESE,114,3.0,4.0,93,0.00,,,0.05,Wunderground v.1.15,2013-10-18 05:40:00,
2013-10-17 21:45:00,32.6,31.1,29.49,ESE,114,2.0,5.0,94,0.00,,,0.05,Wunderground v.1.15,2013-10-18 05:45:00,
2013-10-17 21:50:00,32.5,31.0,29.49,ESE,114,1.0,1.0,94,0.00,,,0.05,Wunderground v.1.15,2013-10-18 05:50:00,
2013-10-17 21:55:00,32.5,31.0,29.49,ESE,114,1.0,4.0,94,0.00,,,0.05,Wunderground v.1.15,2013-10-18 05:55:00,
2013-10-17 22:00:00,32.5,31.0,29.49,ESE,114,2.0,4.0,94,0.00,,,0.05,Wunderground v.1.15,2013-10-18 06:00:00,
2013-10-17 22:05:00,32.4,30.9,29.49,ESE,114,3.0,4.0,94,0.00,,,0.05,Wunderground v.1.15,2013-10-18 06:05:00,
2013-10-17 22:10:00,32.4,30.9,29.49,ESE,114,2.0,5.0,94,0.00,,,0.05,Wunderground v.1.15,2013-10-18 06:10:00,
2013-10-17 22:15:00,32.4,30.9,29.49,ESE,114,2.0,5.0,94,0.00,,,0.05,Wunderground v.1.15,2013-10-18 06:15:00,
2013-10-17 22:20:00,32.6,31.3,29.49,ESE,114,3.0,9.0,95,0.00,,,0.05,Wunderground v.1.15,2013-10-18 06:20:00,
2013-10-17 22:25:00,32.6,31.3,29.49,ESE,114,4.0,9.0,95,0.00,,,0.05,Wunderground v.1.15,2013-10-18 06:25:00,
2013-10-17 22:30:00,32.6,31.1,29.49,ESE,114,3.0,3.0,94,0.00,,,0.05,Wunderground v.1.15,2013-10-18 06:30:00,
2013-10-17 22:35:00,32.6,31.3,29.49,ESE,114,2.0,4.0,95,0.00,,,0.05,Wunderground v.1.15,2013-10-18 06:35:00,
2013-10-17 22:40:00,32.6,31.3,29.49,ESE,114,2.0,2.0,95,0.00,,,0.05,Wunderground v.1.15,2013-10-18 06:40:00,
2013-10-17 22:45:00,32.7,31.2,29.49,ESE,114,2.0,2.0,94,0.00,,,0.05,Wunderground v.1.15,2013-10-18 06:45:00,
2013-10-17 22:50:00,32.8,31.3,29.49,ESE,114,2.0,2.0,94,0.00,,,0.05,Wunderground v.1.15,2013-10-18 06:50:00,
2013-10-17 22:55:00,32.8,31.5,29.49,ESE,114,3.0,3.0,95,0.00,,,0.05,Wunderground v.1.15,2013-10-18 06:55:00,
2013-10-17 23:05:00,32.5,31.2,29.49,ESE,114,2.0,3.0,95,0.00,,,0.05,Wunderground v.1.15,2013-10-18 07:05:00,
2013-10-17 23:10:00,32.5,31.2,29.49,ESE,114,2.0,2.0,95,0.00,,,0.05,Wunderground v.1.15,2013-10-18 07:10:00,
2013-10-17 23:15:00,32.5,31.5,29.49,ESE,114,2.0,2.0,96,0.00,,,0.05,Wunderground v.1.15,2013-10-18 07:15:00,
2013-10-17 23:20:00,32.4,31.4,29.49,ESE,114,0.0,0.0,96,0.00,,,0.05,Wunderground v.1.15,2013-10-18 07:20:00,
2013-10-17 23:25:00,32.4,31.4,29.49,ESE,114,1.0,1.0,96,0.00,,,0.05,Wunderground v.1.15,2013-10-18 07:25:00,
2013-10-17 23:30:00,32.3,31.0,29.49,ESE,114,2.0,2.0,95,0.00,,,0.05,Wunderground v.1.15,2013-10-18 07:30:00,
2013-10-17 23:35:00,32.3,31.0,29.49,ESE,114,1.0,2.0,95,0.00,,,0.05,Wunderground v.1.15,2013-10-18 07:35:00,
2013-10-17 23:40:00,32.3,31.0,29.49,ESE,114,1.0,4.0,95,0.00,,,0.05,Wunderground v.1.15,2013-10-18 07:40:00,
2013-10-17 23:45:00,32.4,31.1,29.49,ESE,114,3.0,4.0,95,0.00,,,0.05,Wunderground v.1.15,2013-10-18 07:45:00,
2013-10-17 23:50:00,32.3,31.0,29.49,ESE,114,3.0,3.0,95,0.00,,,0.05,Wunderground v.1.15,2013-10-18 07:50:00,
2013-10-17 23:55:00,32.3,31.0,29.49,ESE,114,2.0,3.0,95,0.00,,,0.05,Wunderground v.1.15,2013-10-18 07:55:00,